AirNav   Pilot Hours Calculator
 
 1565 users online  

69CL Medlock Field Airport
Davis, California, USA

GOING TO DAVIS?


FAA INFORMATION EFFECTIVE 04 NOVEMBER 2021

Location

FAA Identifier: 69CL
Lat/Long: 38-36-55.6600N 121-44-50.8640W
38-36.927667N 121-44.847733W
38.6154611,-121.7474622
(estimated)
Elevation: 48 ft. / 15 m (estimated)
Variation: 16E (1985)
From city: 3 miles N of DAVIS, CA
Time zone: UTC -7 (UTC -8 during Standard Time)
Zip code: 95776

Airport Operations

Airport use: Private use. Permission required prior to landing
Activation date: 04/1974
Control tower: no
ARTCC: OAKLAND CENTER
FSS: RANCHO MURIETA FLIGHT SERVICE STATION
Attendance: MON-SAT DAYLIGHT HOURS
Wind indicator: yes
Segmented circle: no

Airport Communications

WX AWOS-3 at EDU (5 nm S): 119.025 (530-754-6839)
WX AWOS-3P at DWA (6 nm SW): 125.775 (530-750-2759)
WX ASOS at SMF (9 nm NE): PHONE 916-649-3996
WX ASOS at SAC (13 nm SE): PHONE 916-421-0923
WX AWOS-3 at MCC (17 nm E): 125.975 (916-641-1272)
WX ASOS at VCB (17 nm SW): 134.75 (707-448-1594)

Nearby radio navigation aids

VOR radial/distance  VOR name  Freq  Var
SACr301/13.8SACRAMENTO VORTAC115.2017E
MCCr242/16.4MC CLELLAN VOR/DME109.2017E
MYVr180/30.1MARYSVILLE VOR/DME110.8016E
ILAr136/30.3WILLIAMS VORTAC114.4018E
CCRr005/37.0CONCORD VOR/DME117.0017E
SGDr031/39.4SCAGGS ISLAND VORTAC112.1017E

Airport Services

Airframe service: NONE
Powerplant service: NONE

Runway Information

Runway 18/36

Dimensions: 2600 x 50 ft. / 792 x 15 m
Surface: asphalt
RUNWAY 18  RUNWAY 36
Traffic pattern: leftleft

Airport Ownership and Management from official FAA records

Ownership: Privately-owned
Owner: RALPH HOLSCLAW
41167 COUNTY ROAD 27
WOODLAND, CA 95776
Phone 916-662-7341
Manager: RALPH HOLSCLAW
41167 COUNTY ROAD 27
WOODLAND, CA 95776
Phone 916-662-7341

Airport Operational Statistics

Aircraft based on the field: 15
Single engine airplanes: 15
    

Additional Remarks

FOR CD CTC NORCAL APCH AT 916-361-6874.

Instrument Procedures

There are no published instrument procedures at 69CL.

Some nearby airports with instrument procedures:

KEDU - University Airport (5 nm S)
KDWA - Yolo County Airport (6 nm SW)
O41 - Watts-Woodland Airport (7 nm NW)
KSMF - Sacramento International Airport (9 nm NE)
KSAC - Sacramento Executive Airport (13 nm SE)
KMCC - Mc Clellan Airfield (17 nm E)
KVCB - Nut Tree Airport (17 nm SW)
 
Loc | Ops | Rwys | IFR | FBO | Links
Com | Nav | Svcs | Stats | Notes

Sonoma Jet Center
 
Area around 69CL (Medlock Field Airport)
 
Road maps at: MapQuest Bing Google
 
Aerial photo
No photo
 
Sectional chart

 
Airport distance calculator
Flying to Medlock Field Airport? Find the distance to fly.

From to 69CL

Sunrise and sunset
Times for 29-Nov-2021
 Local
(UTC-8)
 Zulu
(UTC)
Morning civil twilight06:3614:36
Sunrise07:0515:05
Sunset16:4600:46
Evening civil twilight17:1501:15

Current date and time
Zulu (UTC)  30-Nov-2021 00:45:43
Local (UTC-8)  29-Nov-2021 16:45:43
 
METAR
KEDU 
5nm S 
300035Z AUTO 00000KT 10SM CLR 19/10 A3011 RMK AO1
KDWA 
6nm SW 
300035Z AUTO 00000KT 10SM CLR 19/12 A3011 RMK AO2
KSMF 
9nm NE 
292353Z 35004KT 10SM CLR 19/12 A3010 RMK AO2 SLP191 T01940117 10200 20117 56019
KSAC 
14nm SE 
290845Z AUTO 00000KT 1/2SM FG VV005 07/07 A3020 RMK AO2 T00670067
KMCC 
17nm E 
300035Z AUTO 31004KT 10SM CLR 17/12 A3010 RMK AO2
KVCB 
17nm SW 
292353Z AUTO 03003KT 10SM CLR 21/12 A3011 RMK AO2 SLP196 T02110122 10211 20150 56016
TAF
KSMF 
9nm NE 
291720Z 2918/3018 33004KT P6SM FEW250 FM300700 VRB03KT 4SM BR FEW250 FM301300 34002KT 2SM BR BCFG FEW250
KSAC 
14nm SE 
291720Z 2918/3018 VRB05KT P6SM FEW250 FM300500 VRB03KT 3SM BR FEW250 FM300800 VRB02KT 1/4SM FG VV002
KMCC 
17nm E 
291720Z 2918/3018 VRB04KT P6SM FEW250 FM300900 VRB02KT 4SM BR FEW250
NOTAMs
Click for the latest NOTAMs
NOTAMs are issued by the DoD/FAA and will open in a separate window not controlled by AirNav.

 

 
 

Would you like to see your business listed on this page?

 If your business provides an interesting product or service to pilots, flight crews, aircraft, or users of the Medlock Field Airport, you should consider listing it here.  To start the listing process, click on the button below
 
Add a business
 

Other Pages about Medlock Field Airport

Update a link
 
Copyright © AirNav, LLC. All rights reserved. Privacy Policy  Contact